Location: Bastogne Gables
(35.1554°N, 78.9900°W)
Time: 03:47:01
(UTC+00:00)

Cosmos 1408 - Pass Details

Date: 29 October 2020
Orbit: 470 x 492 km, 82.6° (Epoch: 26 November)

Event Time Altitude Azimuth Distance (km) Brightness Sun altitude
Rises 22:58:48 0° 13° (NNE) 2,556 6.0 -7.8°
Reaches altitude 10° 23:01:30 10° 34° (NE) 1,675 4.9 -8.3°
Maximum altitude 23:03:56 17° 76° (ENE) 1,309 4.1 -8.8°
Drops below altitude 10° 23:06:22 10° 118° (ESE) 1,675 4.8 -9.3°
Sets 23:09:03 0° 139° (SE) 2,554 5.9 -9.8°
